Location: Esp�n
(42.4593°N, 0.2047°W)
Time: 21:21:23
(UTC+00:00)

STARLINK-70 - Pass Details

Date: 07 October 2020
Orbit: 441 x 442 km, 53.0° (Epoch: 26 October)

Event Time Altitude Azimuth Distance (km) Brightness Sun altitude
Exits shadow 03:46:32 26° 110° (ESE) 904 5.2 -26.1°
Drops below altitude 10° 03:48:51 10° 73° (ENE) 1,558 7.0 -25.7°
Sets 03:51:09 0° 62° (ENE) 2,432 8.2 -25.3°
